Regional Weather Roundup
Issued by NWS

Home | Current Version | Previous Version | Text Only | Print | Product List | Glossary Off
Versions: 1 2 3 4 5 6 7 8 9 10 11 12 13 14 15 16 17 18 19 20 21 22 23 24 25 26 27 28 29 30 31 32 33 34 35 36 37 38 39 40 41 42 43 44 45 46 47 48 49 50

000
ASUS43 KLSX 291010
RWRMO

WEATHER SUMMARY FOR MISSOURI
NATIONAL WEATHER SERVICE SPRINGFIELD MO
500 AM CDT SAT AUG 29 2015

NOTE: "FAIR" INDICATES FEW OR NO CLOUDS BELOW 12,000 FEET WITH NO
       SIGNIFICANT WEATHER AND/OR OBSTRUCTIONS TO VISIBILITY.
       CURRENT SKY AND/OR WEATHER CONDITIONS ARE NOT AVAILABLE FOR
       CHILLICOTHE AND FARMINGTON.

MOZ001>031-035>038-043-044-053-054-291100-
...NORTHERN AND WESTERN MISSOURI...

CITY           SKY/WX    TMP DP  RH WIND       PRES   REMARKS
KANSAS CTY INT CLOUDY    70  68  93 W6        29.94R
KANSAS C DTWN  CLOUDY    72  69  90 W6        29.93R
LEE`S SUMMIT   CLOUDY    71  68  90 SW7       29.95R
ST JOSEPH      CLOUDY    67  65  93 N6        29.95S
CHILLICOTHE      N/A     70  68  93 CALM      29.94S
KIRKSVILLE     CLOUDY    68  64  87 S5        29.96S

$$
MOZ066>068-077>081-088>096-101>105-291100-
...SOUTHWEST MISSOURI...

CITY           SKY/WX    TMP DP  RH WIND       PRES   REMARKS
SPRINGFIELD    CLOUDY    71  60  68 S12       29.99S
JOPLIN         CLOUDY    71  63  75 S8        29.97F

$$
MOZ032>034-039>042-045>050-055>058-069>072-291100-
...CENTRAL MISSOURI...

CITY           SKY/WX    TMP DP  RH WIND       PRES   REMARKS
COLUMBIA       CLOUDY    68  63  84 SE5       29.97S
JEFFERSON CITY MOCLDY    70  62  76 E7        29.97S
ROLLA          CLOUDY    69  61  75 S10       29.99S
SEDALIA        CLEAR     70  62  76 S10       29.96S
WHITEMAN AFB   CLEAR     69  64  83 SW12      29.93S
WARRENSBURG    CLEAR     68  63  83 S8        29.94S
OSAGE BEACH    CLOUDY    70  59  68 SE5       29.98F

$$
MOZ051-052-059>065-291100-
...EAST CENTRAL MISSOURI...

CITY           SKY/WX    TMP DP  RH WIND       PRES   REMARKS
ST LOUIS INTL  CLOUDY    73  62  68 S6        30.01F
SPIRIT OF STL  MOCLDY    67  64  90 CALM      29.99F
ST CHARLES     CLOUDY    68  66  93 NE3       29.99F

$$
MOZ072>076-082>087-097>100-106>115-291100-
...SOUTH CENTRAL AND SOUTHEAST MISSOURI...

CITY           SKY/WX    TMP DP  RH WIND       PRES   REMARKS
CAPE GIRARDEAU MOCLDY    70  66  87 CALM      30.02S
FARMINGTON     CLOUDY    66  63  88 CALM      30.05F
POPLAR BLUFF   CLOUDY    68  66  93 CALM      30.01R
WEST PLAINS    CLOUDY    69  60  73 SW3       30.05S

$$


USA.gov is the U.S. government's official web portal to all federal, state and local government web resources and services.